| time (UTC) | temp F | wind direction | speed MPH | gust MPH | rain 1hr in | rain 24hr in | rain mn in | humidity % | barometer mb |
| 20260505054206 | 71 | 95 | 7.0 | 14.0 | 0.00 | 0.00 | 0.00 | 69 | 1003.2 |
| 20260505053706 | 71 | 124 | 3.0 | 9.0 | 0.00 | 0.00 | 0.00 | 70 | 1003.3 |
| 20260505053205 | 70 | 137 | 3.0 | 8.0 | 0.00 | 0.00 | 0.00 | 71 | 1003.1 |
| 20260505052705 | 70 | 141 | 3.0 | 8.0 | 0.00 | 0.00 | 0.00 | 71 | 1003.2 |
| 20260505052204 | 70 | 142 | 4.0 | 8.0 | 0.00 | 0.00 | 0.00 | 71 | 1003.2 |
| 20260505051705 | 70 | 124 | 3.0 | 9.0 | 0.00 | 0.00 | 0.00 | 71 | 1003.1 |
| 20260505050704 | 71 | 43 | 6.0 | 12.0 | 0.00 | 0.00 | 0.00 | 70 | 1003.2 |
| 20260505050205 | 70 | 103 | 6.0 | 12.0 | 0.00 | 0.00 | 0.00 | 70 | 1003.3 |
| 20260505041705 | 70 | 118 | 1.0 | 10.0 | 0.00 | 0.00 | 0.00 | 69 | 1002.7 |
| 20260505041205 | 71 | 131 | 5.0 | 10.0 | 0.00 | 0.00 | 0.00 | 69 | 1002.7 |
| 20260505040705 | 71 | 163 | 3.0 | 10.0 | 0.00 | 0.00 | 0.00 | 68 | 1002.6 |
| 20260505040205 | 71 | 152 | 6.0 | 10.0 | 0.00 | 0.00 | 0.00 | 68 | 1002.5 |
| 20260505035705 | 71 | 150 | 4.0 | 9.0 | 0.00 | 0.00 | 0.00 | 67 | 1002.7 |
| 20260505034205 | 71 | 114 | 5.0 | 10.0 | 0.00 | 0.00 | 0.00 | 65 | 1002.8 |
| 20260505033705 | 71 | 110 | 5.0 | 10.0 | 0.00 | 0.00 | 0.00 | 65 | 1002.7 |
| 20260505033208 | 72 | 81 | 6.0 | 12.0 | 0.00 | 0.00 | 0.00 | 64 | 1002.5 |
| 20260505032719 | 72 | 140 | 6.0 | 15.0 | 0.00 | 0.00 | 0.00 | 64 | 1002.4 |
| 20260505032218 | 72 | 136 | 6.0 | 15.0 | 0.00 | 0.00 | 0.00 | 63 | 1002.4 |
| 20260505030704 | 73 | 113 | 6.0 | 14.0 | 0.00 | 0.00 | 0.00 | 60 | 1002.6 |
| 20260505030205 | 73 | 136 | 6.0 | 12.0 | 0.00 | 0.00 | 0.00 | 60 | 1002.5 |
| 20260505025205 | 73 | 142 | 6.0 | 16.0 | 0.00 | 0.00 | 0.00 | 59 | 1002.3 |
| 20260505023705 | 74 | 148 | 11.0 | 22.0 | 0.00 | 0.00 | 0.00 | 59 | 1002.3 |
| 20260505022722 | 74 | 146 | 16.0 | 22.0 | 0.00 | 0.00 | 0.00 | 58 | 1002.4 |
| 20260505022206 | 74 | 154 | 14.0 | 23.0 | 0.00 | 0.00 | 0.00 | 58 | 1002.2 |
| 20260505021705 | 74 | 147 | 13.0 | 23.0 | 0.00 | 0.00 | 0.00 | 58 | 1002.3 |
| 20260505021206 | 74 | 150 | 12.0 | 18.0 | 0.00 | 0.00 | 0.00 | 57 | 1002.4 |
| 20260505020705 | 74 | 162 | 6.0 | 15.0 | 0.00 | 0.00 | 0.00 | 57 | 1002.9 |
| 20260505015705 | 74 | 150 | 7.0 | 14.0 | 0.00 | 0.00 | 0.00 | 55 | 1003.1 |
| 20260505015214 | 74 | 158 | 7.0 | 14.0 | 0.00 | 0.00 | 0.00 | 54 | 1003.3 |
| 20260505014705 | 74 | 158 | 6.0 | 15.0 | 0.00 | 0.00 | 0.00 | 53 | 1003.3 |
| 20260505014205 | 75 | 146 | 7.0 | 15.0 | 0.00 | 0.00 | 0.00 | 53 | 1003.0 |
| 20260505013705 | 75 | 157 | 6.0 | 14.0 | 0.00 | 0.00 | 0.00 | 52 | 1002.8 |
| 20260505013205 | 75 | 154 | 8.0 | 15.0 | 0.00 | 0.00 | 0.00 | 51 | 1002.5 |
| 20260505011705 | 75 | 155 | 9.0 | 17.0 | 0.00 | 0.00 | 0.00 | 50 | 1002.2 |
| 20260505011205 | 76 | 154 | 10.0 | 16.0 | 0.00 | 0.00 | 0.00 | 50 | 1002.1 |
| 20260505010705 | 76 | 152 | 7.0 | 16.0 | 0.00 | 0.00 | 0.00 | 49 | 1002.0 |
| 20260505010205 | 76 | 150 | 9.0 | 18.0 | 0.00 | 0.00 | 0.00 | 49 | 1002.1 |
| 20260505005705 | 76 | 155 | 11.0 | 18.0 | 0.00 | 0.00 | 0.00 | 48 | 1002.0 |
| 20260505005206 | 76 | 156 | 10.0 | 17.0 | 0.00 | 0.00 | 0.00 | 47 | 1001.9 |
| 20260505004205 | 77 | 152 | 10.0 | 20.0 | 0.00 | 0.00 | 0.00 | 46 | 1001.9 |
| 20260505003705 | 77 | 154 | 13.0 | 20.0 | 0.00 | 0.00 | 0.00 | 46 | 1002.0 |
| 20260505003205 | 77 | 141 | 11.0 | 16.0 | 0.00 | 0.00 | 0.00 | 45 | 1001.9 |
| 20260505002205 | 78 | 152 | 10.0 | 16.0 | 0.00 | 0.00 | 0.00 | 44 | 1002.1 |
| 20260505001705 | 78 | 157 | 9.0 | 16.0 | 0.00 | 0.00 | 0.00 | 44 | 1002.1 |
| 20260505000722 | 78 | 145 | 9.0 | 18.0 | 0.00 | 0.00 | 0.00 | 43 | 1002.2 |
| 20260505000205 | 79 | 149 | 12.0 | 20.0 | 0.00 | 0.00 | 0.00 | 43 | 1002.1 |
| 20260504235705 | 79 | 158 | 10.0 | 20.0 | 0.00 | 0.00 | 0.00 | 43 | 1002.2 |
| 20260504235205 | 79 | 145 | 9.0 | 17.0 | 0.00 | 0.00 | 0.00 | 42 | 1002.2 |
| 20260504234705 | 79 | 143 | 11.0 | 17.0 | 0.00 | 0.00 | 0.00 | 42 | 1002.2 |
| 20260504234205 | 79 | 150 | 10.0 | 18.0 | 0.00 | 0.00 | 0.00 | 42 | 1002.2 |
| 20260504233705 | 79 | 155 | 8.0 | 18.0 | 0.00 | 0.00 | 0.00 | 42 | 1002.3 |
| 20260504233206 | 80 | 151 | 11.0 | 18.0 | 0.00 | 0.00 | 0.00 | 42 | 1002.4 |
| 20260504231706 | 80 | 148 | 9.0 | 23.0 | 0.00 | 0.00 | 0.00 | 41 | 1002.3 |
| 20260504231206 | 80 | 145 | 13.0 | 23.0 | 0.00 | 0.00 | 0.00 | 41 | 1002.3 |
| 20260504230705 | 81 | 145 | 13.0 | 20.0 | 0.00 | 0.00 | 0.00 | 40 | 1002.2 |
| 20260504230205 | 81 | 154 | 8.0 | 25.0 | 0.00 | 0.00 | 0.00 | 41 | 1002.1 |
| 20260504225704 | 81 | 152 | 10.0 | 25.0 | 0.00 | 0.00 | 0.00 | 40 | 1002.1 |
| 20260504225205 | 81 | 146 | 13.0 | 24.0 | 0.00 | 0.00 | 0.00 | 40 | 1002.2 |
| 20260504224204 | 82 | 140 | 11.0 | 18.0 | 0.00 | 0.00 | 0.00 | 39 | 1002.1 |
| 20260504223704 | 82 | 152 | 10.0 | 18.0 | 0.00 | 0.00 | 0.00 | 39 | 1002.1 |
| 20260504222705 | 83 | 151 | 13.0 | 20.0 | 0.00 | 0.00 | 0.00 | 39 | 1002.1 |
| 20260504222205 | 83 | 144 | 13.0 | 20.0 | 0.00 | 0.00 | 0.00 | 39 | 1002.1 |
| 20260504221705 | 83 | 144 | 12.0 | 20.0 | 0.00 | 0.00 | 0.00 | 38 | 1002.0 |
| 20260504221205 | 83 | 138 | 10.0 | 20.0 | 0.00 | 0.00 | 0.00 | 38 | 1002.1 |
| 20260504220705 | 83 | 152 | 12.0 | 20.0 | 0.00 | 0.00 | 0.00 | 38 | 1002.1 |
| 20260504220204 | 84 | 173 | 9.0 | 20.0 | 0.00 | 0.00 | 0.00 | 37 | 1002.1 |
| 20260504215705 | 84 | 131 | 11.0 | 22.0 | 0.00 | 0.00 | 0.00 | 36 | 1002.2 |
| 20260504215207 | 84 | 164 | 10.0 | 22.0 | 0.00 | 0.00 | 0.00 | 35 | 1002.2 |
| 20260504214705 | 83 | 167 | 12.0 | 20.0 | 0.00 | 0.00 | 0.00 | 36 | 1002.2 |
| 20260504214205 | 83 | 146 | 10.0 | 23.0 | 0.00 | 0.00 | 0.00 | 36 | 1002.3 |
| 20260504213705 | 84 | 161 | 9.0 | 23.0 | 0.00 | 0.00 | 0.00 | 36 | 1002.4 |
| 20260504213205 | 85 | 137 | 7.0 | 18.0 | 0.00 | 0.00 | 0.00 | 35 | 1002.4 |
| 20260504212704 | 84 | 161 | 9.0 | 17.0 | 0.00 | 0.00 | 0.00 | 34 | 1002.6 |
| 20260504211705 | 85 | 157 | 6.0 | 18.0 | 0.00 | 0.00 | 0.00 | 32 | 1002.5 |
| 20260504211205 | 85 | 202 | 9.0 | 18.0 | 0.00 | 0.00 | 0.00 | 32 | 1002.5 |
| 20260504210706 | 85 | 156 | 11.0 | 20.0 | 0.00 | 0.00 | 0.00 | 30 | 1002.6 |
| 20260504205705 | 85 | 145 | 12.0 | 24.0 | 0.00 | 0.00 | 0.00 | 30 | 1002.7 |
| 20260504205205 | 86 | 232 | 13.0 | 22.0 | 0.00 | 0.00 | 0.00 | 28 | 1002.8 |
| 20260504204205 | 86 | 144 | 7.0 | 18.0 | 0.00 | 0.00 | 0.00 | 29 | 1003.0 |
| 20260504203204 | 85 | 154 | 9.0 | 17.0 | 0.00 | 0.00 | 0.00 | 30 | 1003.1 |
| 20260504202705 | 85 | 165 | 9.0 | 17.0 | 0.00 | 0.00 | 0.00 | 29 | 1003.1 |
| 20260504202205 | 85 | 149 | 5.0 | 17.0 | 0.00 | 0.00 | 0.00 | 33 | 1003.2 |
| 20260504201706 | 85 | 153 | 1.0 | 15.0 | 0.00 | 0.00 | 0.00 | 36 | 1003.2 |
| 20260504201206 | 85 | 156 | 3.0 | 15.0 | 0.00 | 0.00 | 0.00 | 33 | 1003.4 |
| 20260504200705 | 85 | 167 | 9.0 | 15.0 | 0.00 | 0.00 | 0.00 | 30 | 1003.5 |
| 20260504200205 | 86 | 144 | 5.0 | 12.0 | 0.00 | 0.00 | 0.00 | 33 | 1003.6 |
| 20260504195705 | 85 | 236 | 3.0 | 8.0 | 0.00 | 0.00 | 0.00 | 39 | 1003.6 |
| 20260504195205 | 85 | 237 | 3.0 | 12.0 | 0.00 | 0.00 | 0.00 | 36 | 1003.7 |
| 20260504194705 | 85 | 130 | 5.0 | 12.0 | 0.00 | 0.00 | 0.00 | 32 | 1003.8 |
| 20260504194205 | 85 | 171 | 6.0 | 12.0 | 0.00 | 0.00 | 0.00 | 32 | 1003.8 |
| 20260504193705 | 85 | 203 | 5.0 | 12.0 | 0.00 | 0.00 | 0.00 | 33 | 1004.0 |
| 20260504193205 | 85 | 75 | 2.0 | 14.0 | 0.00 | 0.00 | 0.00 | 36 | 1003.9 |
| 20260504192205 | 83 | 111 | 3.0 | 14.0 | 0.00 | 0.00 | 0.00 | 38 | 1004.0 |
| 20260504191705 | 83 | 149 | 6.0 | 12.0 | 0.00 | 0.00 | 0.00 | 35 | 1004.2 |
| 20260504191205 | 83 | 149 | 3.0 | 17.0 | 0.00 | 0.00 | 0.00 | 35 | 1004.3 |
| 20260504190705 | 84 | 224 | 7.0 | 17.0 | 0.00 | 0.00 | 0.00 | 36 | 1004.3 |
| 20260504190205 | 83 | 104 | 1.0 | 8.0 | 0.00 | 0.00 | 0.00 | 38 | 1004.4 |
| 20260504185704 | 82 | 109 | 2.0 | 8.0 | 0.00 | 0.00 | 0.00 | 37 | 1004.4 |
| 20260504185206 | 82 | 111 | 3.0 | 8.0 | 0.00 | 0.00 | 0.00 | 37 | 1004.4 |
| 20260504184205 | 81 | 149 | 4.0 | 8.0 | 0.00 | 0.00 | 0.00 | 37 | 1004.5 |
| 20260504183705 | 81 | 191 | 5.0 | 7.0 | 0.00 | 0.00 | 0.00 | 40 | 1004.5 |
| 20260504183206 | 80 | 185 | 3.0 | 14.0 | 0.00 | 0.00 | 0.00 | 40 | 1004.6 |
| 20260504182705 | 80 | 199 | 3.0 | 14.0 | 0.00 | 0.00 | 0.00 | 38 | 1004.7 |
| 20260504181706 | 80 | 157 | 5.0 | 14.0 | 0.00 | 0.00 | 0.00 | 39 | 1004.8 |
| 20260504181205 | 80 | 174 | 2.0 | 10.0 | 0.00 | 0.00 | 0.00 | 39 | 1004.9 |
| 20260504180705 | 80 | 234 | 3.0 | 15.0 | 0.00 | 0.00 | 0.00 | 40 | 1005.0 |
| 20260504175706 | 81 | 214 | 6.0 | 14.0 | 0.00 | 0.00 | 0.00 | 38 | 1005.1 |
| 20260504175204 | 80 | 179 | 2.0 | 15.0 | 0.00 | 0.00 | 0.00 | 44 | 1005.1 |
| 20260504174705 | 79 | 159 | 6.0 | 15.0 | 0.00 | 0.00 | 0.00 | 40 | 1005.3 |
| 20260504174206 | 79 | 254 | 6.0 | 15.0 | 0.00 | 0.00 | 0.00 | 42 | 1005.4 |
| 20260504173705 | 79 | 225 | 5.0 | 16.0 | 0.00 | 0.00 | 0.00 | 40 | 1005.3 |
| 20260504173205 | 79 | 249 | 9.0 | 16.0 | 0.00 | 0.00 | 0.00 | 39 | 1005.4 |
| 20260504172704 | 79 | 224 | 6.0 | 15.0 | 0.00 | 0.00 | 0.00 | 41 | 1005.3 |
| 20260504172205 | 80 | 283 | 6.0 | 15.0 | 0.00 | 0.00 | 0.00 | 41 | 1005.3 |
| 20260504171205 | 77 | 233 | 6.0 | 16.0 | 0.00 | 0.00 | 0.00 | 45 | 1005.4 |
| 20260504170705 | 76 | 226 | 5.0 | 16.0 | 0.00 | 0.00 | 0.00 | 42 | 1005.3 |
| 20260504170205 | 77 | 206 | 9.0 | 16.0 | 0.00 | 0.00 | 0.00 | 41 | 1005.3 |
| 20260504160205 | 72 | 198 | 12.0 | 20.0 | 0.00 | 0.00 | 0.00 | 47 | 1005.1 |
| 20260504150705 | 69 | 214 | 13.0 | 20.0 | 0.00 | 0.00 | 0.00 | 50 | 1005.5 |
| 20260504150205 | 69 | 213 | 7.0 | 22.0 | 0.00 | 0.00 | 0.00 | 52 | 1005.4 |
| 20260504140705 | 65 | 212 | 8.0 | 22.0 | 0.00 | 0.00 | 0.00 | 53 | 1005.5 |
| 20260504140205 | 65 | 220 | 14.0 | 26.0 | 0.00 | 0.00 | 0.00 | 53 | 1005.7 |
| 20260504130705 | 62 | 226 | 10.0 | 20.0 | 0.00 | 0.00 | 0.00 | 58 | 1005.6 |
| 20260504130205 | 61 | 209 | 8.0 | 16.0 | 0.00 | 0.00 | 0.00 | 59 | 1005.5 |
| 20260504120205 | 59 | 178 | 6.0 | 14.0 | 0.00 | 0.00 | 0.00 | 60 | 1005.4 |
| 20260504110705 | 60 | 204 | 7.0 | 17.0 | 0.00 | 0.00 | 0.00 | 55 | 1005.6 |
| 20260504110205 | 60 | 203 | 5.0 | 16.0 | 0.00 | 0.00 | 0.00 | 55 | 1005.7 |
| 20260504100205 | 62 | 212 | 6.0 | 18.0 | 0.00 | 0.00 | 0.00 | 52 | 1006.2 |
| 20260504081705 | 64 | 212 | 6.0 | 16.0 | 0.00 | 0.00 | 0.00 | 47 | 1006.9 |
| 20260504081204 | 64 | 138 | 7.0 | 17.0 | 0.00 | 0.00 | 0.00 | 47 | 1006.9 |
| 20260504080704 | 64 | 156 | 5.0 | 17.0 | 0.00 | 0.00 | 0.00 | 47 | 1006.9 |
| 20260504080205 | 64 | 161 | 7.0 | 14.0 | 0.00 | 0.00 | 0.00 | 47 | 1007.0 |
| 20260504070205 | 66 | 223 | 9.0 | 24.0 | 0.00 | 0.00 | 0.00 | 44 | 1007.6 |
| 20260504060204 | 68 | 213 | 13.0 | 26.0 | 0.00 | 0.00 | 0.00 | 41 | 1008.2 |